Weather in Nantes

France     47˚13′09″N   1˚33′22″W
temp.,
°C
wind,
m/s
gust,
m/s
humid.,
%
clouds,
%
prec.,
mm/h
press.,
hPa
HPBL,
m
28 november, sat
sat2801:00+10˚se359239 0.0 1012100
04:00+9˚ese33920 0.0 101255
07:00+8˚e34900 0.0 101279
10:00+10˚e59840 0.0 1012257
13:00+14˚ene6107131 0.0 1012425
16:00+13˚ene5116982 0.0 1012409
19:00+11˚ene6137344 0.0 1014339
22:00+9˚ene611800 0.0 1015270
29 november, sun
sun2901:00+7˚ene510712 0.0 1016269
04:00+6˚ene5106667 0.0 1017255
07:00+5˚ene5106533 0.0 1018254
10:00+6˚ene6126724 0.0 1020316
13:00+10˚ene6106012 0.0 1021453
16:00+10˚ne510630 0.0 1021460
19:00+7˚ne511750 0.0 1022285
22:00+5˚ne411800 0.0 1024266
30 november, mon
mon3001:00+4˚ne48830 0.0 1025200
04:00+3˚ne35840 0.0 1026117
07:00+2˚ne34840 0.0 102676
10:00+4˚ne35790 0.0 1028174
13:00+9˚ne346016 0.0 1028336
16:00+9˚nne126352 0.0 1027124
19:00+6˚nw227467 0.0 102822
22:00+6˚wnw2282100 0.0 102823
1 december, tue
tue101:00+7˚w2388100 0.0 102746
04:00+8˚w3785100 0.0 1026191
07:00+9˚wnw3992100 0.1 1024291
10:00+9˚wnw4895100 0.3 1024325
13:00+12˚n5882100 0.4 1024909
16:00+10˚n5872100 0.0 1023880
19:00+6˚n4983100 0.0 1024237
22:00+5˚n389196 0.0 1025190
2 december, wed
wed201:00+4˚n358998 0.0 1025116
04:00+4˚nnw338899 0.0 102477
07:00+3˚n238895 0.0 102449
10:00+5˚nnw3484100 0.0 1024161
13:00+8˚nnw236589 0.0 1023552
16:00+9˚nw236610 0.0 1021441
19:00+7˚wsw227651 0.0 102139
22:00+7˚sw247785 0.0 1020129